Theta_e
326 331 336 338 342 343 340 340 341 344 345 344 343 343 342 343 347 347 347 346 344 344 342 341 340 342 338 338 338 338 337 336 329 334 332 328 325 320 318 318 314 311 310
323 325 326 330 334 334 337 341 341 341 342 342 342 342 341 341 346 346 344 343 343 340 339 338 336 334 339 339 335 339 337 338 335 334 328 324 318 316 315 311 311 310 308
324 322 323 325 325 326 329 332 336 340 339 338 336 335 336 340 343 346 345 343 343 341 338 335 332 334 334 332 334 335 335 336 336 333 326 323 314 314 311 310 310 308 309
320 322 323 324 324 325 326 326 326 332 333 333 331 332 333 333 338 342 344 342 340 337 335 333 331 331 330 332 331 333 330 326 328 325 327 323 316 314 312 308 305 308 307
316 317 320 322 323 324 325 326 326 326 324 325 329 329 329 332 335 335 336 332 332 334 332 329 328 327 324 328 326 327 329 325 324 323 322 324 317 311 311 310 307 306 307
314 315 317 318 318 319 322 323 323 325 325 324 321 322 326 329 317 313 324 326 324 329 325 326 326 322 320 318 316 319 326 329 326 323 323 321 324 321 314 309 307 303 302
312 313 314 316 316 317 318 319 320 322 324 321 322 321 320 324 312 307 313 334 331 326 326 324 323 321 322 325 314 312 314 314 320 330 326 324 323 326 321 312 309 307 307
307 309 311 313 313 314 316 318 317 318 322 322 323 321 319 320 310 305 308 329 331 327 328 329 328 327 325 326 327 326 325 325 325 324 329 329 329 329 327 323 313 308 305
304 305 306 308 310 312 313 315 317 319 318 317 318 319 319 318 308 303 308 323 326 326 326 327 327 327 314 307 327 326 327 327 315 311 309 305 305 305 319 317 308 306 303
304 305 305 306 306 308 312 314 315 317 318 318 319 320 315 319 307 305 304 322 322 324 324 323 309 320 303 303 326 327 325 326 326 325 323 316 312 316 308 324 320 310 307
304 304 304 305 305 307 311 313 315 315 313 313 315 318 320 319 315 303 302 320 324 323 322 323 324 303 300 300 306 329 325 328 322 328 327 326 327 324 318 321 324 316 311
303 302 303 304 303 304 305 308 310 311 311 311 307 309 311 312 306 300 299 303 311 317 321 323 322 303 301 298 303 307 303 309 327 325 324 323 323 324 323 321 323 324 322
299 300 302 302 302 303 303 304 305 307 307 307 306 304 304 310 308 300 298 298 299 311 315 311 307 302 300 302 299 301 298 319 324 323 322 322 323 324 327 326 323 322 320
297 297 298 299 299 299 301 302 302 303 304 304 304 304 305 304 304 305 305 306 299 303 306 309 307 306 305 307 312 308 318 323 323 323 323 323 324 325 324 324 319 316 312
294 294 295 296 297 297 298 299 300 302 302 302 303 304 304 304 306 303 303 305 308 306 308 311 310 310 309 311 313 315 318 320 320 322 323 322 322 323 323 324 322 316 311
292 292 293 294 295 296 296 297 296 295 295 294 294 297 303 298 295 294 296 296 295 296 305 306 307 308 308 309 311 312 314 314 318 320 321 321 320 321 321 322 322 316 312
290 292 292 292 293 293 294 294 294 296 294 294 293 293 293 296 294 294 293 293 293 293 304 306 307 307 308 309 309 310 311 314 316 317 319 320 320 320 318 319 321 318 314
291 291 291 291 292 292 292 293 294 293 294 296 294 294 293 293 293 293 292 292 301 299 304 304 305 307 308 309 310 310 312 313 314 314 316 318 319 319 319 319 318 320 315
289 289 290 290 290 291 292 292 293 293 293 294 296 295 293 292 291 291 291 297 298 300 303 303 305 306 307 309 310 311 311 312 312 314 315 316 317 318 318 319 318 304 309
288 289 288 288 288 289 290 290 290 291 292 293 294 295 297 294 295 296 297 298 297 298 300 301 303 304 305 307 308 309 310 310 312 312 314 316 317 318 317 317 318 319 317
287 287 286 287 287 288 288 288 289 290 290 291 292 295 291 295 295 296 297 298 300 300 301 301 301 302 302 303 304 307 309 310 310 313 313 315 317 317 318 318 318 319 318
286 286 287 287 287 287 288 288 289 289 289 289 291 293 288 293 295 296 297 298 299 301 302 301 301 302 303 304 304 305 307 309 310 312 311 314 315 317 317 317 318 319 317
287 286 286 287 287 286 287 288 288 288 289 290 291 291 292 293 294 295 297 298 299 299 300 301 301 303 307 308 308 308 306 308 312 309 311 311 312 316 317 318 318 316 312
287 287 287 288 288 289 290 291 291 288 289 289 290 291 292 293 294 294 295 296 298 300 300 300 301 304 304 305 306 306 308 311 312 314 311 311 311 309 316 319 320 317 313
287 287 287 287 287 287 288 289 290 292 291 291 291 292 292 293 294 295 296 297 298 299 300 300 300 300 300 302 303 305 303 292 306 303 311 312 313 314 315 317 319 318 314
287 287 287 287 286 287 287 287 288 289 290 291 294 295 294 294 295 296 297 298 298 298 299 300 302 302 302 302 303 300 292 290 301 293 310 312 314 314 314 314 315 314 310
Wind_Speed
14 12 7 4 4 7 10 12 13 12 12 12 13 14 15 15 15 14 13 12 12 11 9 10 9 8 6 6 5 4 5 4 4 3 2 3 4 6 6 8 8 8 7
12 11 12 10 7 4 6 8 10 11 11 12 11 10 14 15 15 16 16 15 15 14 14 12 11 8 9 7 6 6 5 5 3 1 3 2 4 4 6 8 6 6 6
9 9 10 10 11 12 9 6 5 8 9 8 8 10 8 13 14 18 18 18 17 17 15 14 13 12 10 8 7 7 5 4 4 3 3 2 2 3 4 5 6 6 5
11 9 8 8 8 7 8 7 9 6 5 2 4 7 7 10 13 16 17 17 16 15 16 14 13 13 12 11 9 9 7 5 4 4 4 3 2 3 3 3 4 3 5
11 11 10 8 7 6 7 7 7 7 8 8 8 7 6 9 9 13 13 8 10 14 15 13 13 14 12 12 9 10 9 6 5 3 3 4 4 3 5 4 3 4 3
11 11 11 11 9 7 8 7 8 6 5 3 6 7 7 6 8 9 9 13 8 15 11 12 13 12 12 12 9 11 11 9 6 4 3 3 5 5 6 6 5 4 3
11 11 11 11 12 10 7 7 8 7 9 8 5 2 4 7 9 11 13 11 16 13 13 11 11 11 13 13 10 7 8 7 5 6 4 4 4 7 8 9 9 5 4
11 12 12 12 12 12 11 9 8 6 9 9 11 9 6 2 10 8 11 14 14 14 14 14 13 13 15 15 13 13 12 11 10 7 6 4 4 3 10 7 8 5 5
12 12 14 14 15 14 13 12 11 10 8 8 7 11 11 9 6 7 10 9 10 11 11 10 12 13 13 13 13 13 12 10 6 6 2 2 2 4 7 8 7 7 3
14 15 15 14 16 16 15 13 11 10 10 8 9 10 9 11 9 8 9 4 7 8 5 6 7 11 12 14 12 12 11 10 10 9 8 6 7 6 12 11 8 9 4
16 16 15 15 15 16 15 12 11 10 7 6 5 6 10 11 9 13 14 6 4 5 5 4 7 11 10 15 15 11 11 8 9 9 8 7 7 6 7 9 9 7 6
16 16 16 14 12 13 16 13 12 11 10 9 6 5 5 4 8 7 8 7 5 6 8 6 5 10 12 13 11 11 8 8 7 7 7 8 7 6 7 10 10 9 7
15 16 16 15 13 14 14 14 13 13 11 11 9 6 5 8 6 12 15 13 9 8 6 7 9 10 11 8 11 9 8 7 8 9 9 9 8 6 6 7 7 6 3
13 13 13 14 14 12 11 12 13 13 13 12 12 11 10 7 6 5 7 9 12 10 7 7 8 9 10 5 6 7 8 9 9 9 9 9 7 7 7 7 6 6 3
14 13 13 11 12 12 12 10 10 13 13 13 14 13 12 12 11 9 7 6 7 8 7 8 8 9 10 8 10 11 10 9 10 9 9 10 9 9 9 7 7 6 4
14 11 10 9 9 9 9 10 16 18 15 15 17 16 12 11 6 7 12 14 10 8 7 12 12 12 13 12 11 12 13 12 11 11 12 12 12 11 10 8 7 6 7
12 13 9 10 9 10 10 10 10 10 22 23 20 20 21 19 12 15 13 13 13 10 13 14 14 13 13 14 13 13 14 13 14 13 14 13 12 13 10 11 10 9 6
12 17 11 10 9 9 9 9 9 10 10 10 17 20 20 20 19 15 13 10 12 14 15 14 13 12 13 12 12 12 12 11 13 13 15 15 14 14 13 13 11 11 8
11 10 9 9 9 10 9 9 10 11 11 10 10 10 15 18 19 19 19 13 13 12 14 15 12 12 11 11 12 12 13 12 12 12 14 14 15 15 15 14 12 11 11
10 15 14 10 10 9 9 10 10 11 10 9 9 10 8 8 11 12 13 13 12 13 13 13 12 12 10 11 10 11 12 12 13 12 13 13 14 14 15 15 13 11 11
9 9 11 9 9 9 9 10 10 10 10 11 12 13 12 11 10 11 12 13 15 14 14 14 12 12 11 12 11 13 14 14 13 12 11 12 13 14 15 14 14 13 13
8 8 7 8 8 9 9 9 10 10 11 11 10 10 10 9 11 12 11 13 13 13 13 13 13 13 14 15 16 16 16 15 14 12 11 12 12 14 14 15 13 10 13
9 9 8 7 7 9 9 9 10 11 11 11 10 10 9 11 12 13 13 12 12 13 12 13 13 14 15 16 16 16 16 16 15 9 10 12 11 14 14 14 14 11 13
10 10 10 8 7 7 7 7 9 12 11 10 9 10 10 10 11 13 13 12 12 11 11 12 12 17 14 15 13 13 13 13 14 14 19 11 12 13 12 15 15 18 14
10 10 10 9 8 8 8 8 8 5 7 9 9 10 10 11 12 12 12 11 11 12 12 13 12 16 20 20 19 21 18 10 16 11 12 14 15 17 13 12 14 15 16
11 11 10 9 8 8 8 8 8 7 7 6 6 7 10 11 11 12 11 12 12 12 14 12 14 20 20 18 20 20 10 11 14 10 13 11 13 12 13 16 22 13 17
Wind_Direction
2 360 2 354 289 241 235 229 233 237 234 232 223 212 203 200 197 197 204 196 197 189 187 191 197 188 195 194 197 206 206 221 247 122 86 54 69 88 98 106 114 112 112
4 4 9 10 0 24 317 270 250 238 232 233 240 242 241 212 203 206 202 199 200 193 193 188 191 187 190 188 191 197 201 195 244 232 118 94 75 84 95 114 120 123 125
351 7 16 23 25 21 34 28 313 254 243 234 226 206 224 247 228 210 208 203 198 199 189 190 187 182 187 190 192 183 177 174 185 207 130 112 102 132 102 101 120 131 132
344 343 339 342 352 4 359 22 38 22 338 329 250 273 247 251 242 236 221 206 195 189 186 190 186 186 184 184 184 175 164 168 166 190 162 137 127 137 134 142 154 169 157
332 334 333 331 333 323 311 332 0 5 43 18 357 322 300 269 262 240 224 228 218 188 189 182 188 185 179 181 173 175 167 173 176 184 189 158 164 157 194 176 165 157 156
322 314 313 316 319 326 319 308 291 296 315 62 67 9 300 272 260 243 247 213 253 249 167 189 184 175 179 180 190 176 180 177 190 215 220 254 196 193 162 180 147 162 204
316 314 314 309 308 304 296 298 294 287 261 259 264 168 317 324 262 227 221 203 192 201 177 177 178 186 183 191 192 185 194 210 210 197 219 239 250 201 182 180 190 188 184
300 305 305 301 301 302 291 278 272 267 262 264 248 238 238 315 303 255 234 217 211 193 187 187 183 182 190 191 192 199 209 206 210 212 222 254 242 213 190 200 177 132 85
294 293 293 294 294 291 289 285 282 269 250 238 237 237 225 226 173 244 251 213 213 198 193 192 199 195 183 186 188 195 201 211 184 215 238 52 343 349 169 144 153 160 151
287 292 291 286 284 282 279 274 276 271 271 260 252 244 231 225 193 188 231 249 206 199 180 191 199 220 154 180 202 198 206 207 199 189 210 202 207 179 177 196 177 185 149
288 287 283 280 275 273 274 267 261 252 250 267 250 251 234 221 199 194 211 210 246 209 203 179 226 201 169 185 209 209 219 216 201 201 208 200 181 171 185 215 198 192 177
282 280 274 273 272 273 268 265 260 258 251 246 250 233 213 207 174 183 195 207 213 223 202 200 187 188 213 191 200 233 220 194 220 199 209 219 215 192 190 192 206 212 216
280 274 273 273 271 265 264 261 257 252 253 252 243 235 225 228 189 194 191 201 215 226 225 204 170 200 212 204 208 203 163 217 216 211 212 222 220 217 176 184 192 186 161
275 274 266 259 260 260 260 256 250 249 250 249 245 246 248 246 222 209 201 195 206 212 227 232 220 205 229 258 202 196 209 217 212 216 220 222 211 196 188 183 166 159 129
278 272 267 262 253 247 245 247 246 249 251 251 248 249 246 242 241 228 218 216 228 236 219 223 229 233 236 229 223 234 219 216 212 215 222 221 213 205 202 191 176 156 154
284 278 271 261 259 253 241 240 231 240 252 237 247 257 256 245 298 229 213 227 233 165 225 240 232 231 230 225 224 220 225 210 224 221 216 219 221 215 201 191 184 172 169
284 283 276 271 260 250 247 246 251 237 231 238 236 235 236 249 209 213 220 221 220 182 231 231 231 229 227 226 223 226 225 219 216 227 227 220 220 219 206 201 195 188 185
280 273 272 271 262 256 258 256 247 244 246 242 229 232 232 233 233 216 207 206 229 222 232 227 231 229 233 227 223 223 226 218 217 220 229 221 217 215 213 216 203 203 174
285 276 268 263 260 259 262 255 251 248 248 246 239 222 221 226 220 221 214 227 230 229 222 229 233 231 222 232 226 222 215 219 221 219 224 222 217 217 215 217 218 197 172
287 276 269 267 262 258 250 248 247 250 251 241 233 227 220 203 220 223 220 221 224 224 226 230 224 220 224 215 217 225 220 219 219 219 227 222 217 217 216 217 219 195 191
290 283 271 263 260 255 253 249 246 243 241 241 242 239 228 226 221 216 221 220 219 219 221 222 220 218 212 216 220 226 226 232 223 214 214 220 218 214 215 217 214 206 180
298 290 282 270 263 255 250 247 245 245 242 241 242 236 211 220 224 226 230 222 222 224 220 218 219 217 210 208 214 218 224 223 226 221 209 230 206 215 212 213 204 190 177
311 304 296 283 266 261 255 248 244 238 237 237 237 235 225 222 228 230 230 231 221 217 215 212 217 216 220 218 216 215 215 221 213 201 202 204 219 212 214 206 192 170 174
328 329 328 323 322 315 303 278 264 233 236 236 233 232 231 228 227 226 226 224 226 224 218 215 218 220 222 221 216 217 221 216 219 202 209 201 206 201 203 200 191 172 175
336 335 335 331 328 325 319 320 324 300 237 231 231 231 230 229 228 227 226 221 221 221 212 206 209 212 213 213 213 212 218 195 216 200 200 204 203 200 192 189 188 183 174
340 340 339 335 333 331 327 325 322 319 315 308 285 247 234 228 228 226 222 220 217 216 214 216 210 209 210 213 216 219 198 184 197 196 203 203 213 191 184 185 185 171 170